TimePDT,TemperatureF,Dew PointF,Humidity,Sea Level PressureIn,VisibilityMPH,Wind Direction,Wind SpeedMPH,Gust SpeedMPH,PrecipitationIn,Events,Conditions,WindDirDegrees,DateUTC
12:53 AM,57.9,46.0,65,30.09,10.0,WNW,19.6,29.9,N/A,,Clear,300,2013-04-02 07:53:00
1:53 AM,57.0,46.0,67,30.10,10.0,WNW,17.3,23.0,N/A,,Clear,290,2013-04-02 08:53:00
2:53 AM,55.9,46.0,69,30.11,10.0,WNW,17.3,-,N/A,,Clear,300,2013-04-02 09:53:00
3:53 AM,55.9,46.0,69,30.12,10.0,NW,15.0,-,N/A,,Clear,310,2013-04-02 10:53:00
4:53 AM,55.0,46.0,72,30.12,10.0,WNW,13.8,23.0,N/A,,Clear,300,2013-04-02 11:53:00
5:53 AM,55.0,45.0,69,30.12,10.0,WNW,16.1,-,N/A,,Clear,300,2013-04-02 12:53:00
6:53 AM,54.0,45.0,72,30.14,10.0,West,11.5,-,N/A,,Clear,280,2013-04-02 13:53:00
7:53 AM,55.9,45.0,67,30.14,10.0,WNW,18.4,-,N/A,,Clear,300,2013-04-02 14:53:00
8:53 AM,57.9,45.0,62,30.15,10.0,NW,16.1,-,N/A,,Clear,310,2013-04-02 15:53:00
9:53 AM,60.1,45.0,57,30.15,10.0,NW,17.3,25.3,N/A,,Clear,320,2013-04-02 16:53:00
10:53 AM,62.1,46.0,56,30.14,10.0,NNW,17.3,25.3,N/A,,Clear,330,2013-04-02 17:53:00
11:53 AM,64.0,46.0,52,30.12,10.0,NW,17.3,23.0,N/A,,Clear,320,2013-04-02 18:53:00
12:53 PM,66.9,45.0,45,30.10,10.0,WNW,19.6,26.5,N/A,,Clear,300,2013-04-02 19:53:00
1:53 PM,66.9,44.1,44,30.10,10.0,NW,23.0,35.7,N/A,,Clear,320,2013-04-02 20:53:00
2:53 PM,66.9,44.1,44,30.10,10.0,NW,19.6,32.2,N/A,,Clear,310,2013-04-02 21:53:00
3:53 PM,64.9,43.0,45,30.10,10.0,NW,25.3,29.9,N/A,,Clear,310,2013-04-02 22:53:00
4:53 PM,64.0,43.0,46,30.09,10.0,NW,16.1,-,N/A,,Clear,310,2013-04-02 23:53:00
5:53 PM,64.0,43.0,46,30.08,10.0,NW,18.4,27.6,N/A,,Clear,310,2013-04-03 00:53:00
6:53 PM,63.0,43.0,48,30.07,10.0,WNW,20.7,27.6,N/A,,Clear,300,2013-04-03 01:53:00
7:53 PM,60.1,43.0,53,30.08,10.0,WNW,10.4,-,N/A,,Clear,300,2013-04-03 02:53:00
8:53 PM,59.0,43.0,55,30.10,10.0,NW,12.7,-,N/A,,Clear,310,2013-04-03 03:53:00
9:53 PM,55.9,43.0,62,30.12,10.0,WNW,4.6,-,N/A,,Clear,300,2013-04-03 04:53:00
10:53 PM,54.0,43.0,66,30.11,10.0,WNW,4.6,-,N/A,,Clear,290,2013-04-03 05:53:00
11:53 PM,54.0,44.1,69,30.12,10.0,NW,6.9,-,N/A,,Clear,310,2013-04-03 06:53:00